User: anonymous   Login
Location: Unspecified
(0.0000°N, 0.0000°E)
Time: 09:23:12
(UTC+00:00)
Language:

PROBA 2 - Orbit

View from above orbital plane
View from above orbital plane
View from above satellite
View from above satellite

Ground track
Ground track

The orbit data is extracted from the following two-line orbital elements,

1 36037U 09059B   16178.53033706  .00000012  00000-0  13754-4 0  9999
2 36037  98.2637  11.3772 0013235 357.3810   2.7314 14.52953298352485
Epoch (UTC): 26 June 2016 12:43:41
Eccentricity: 0.0013235
inclination: 98.2637°
perigee height: 706 km
apogee height: 725 km
right ascension of ascending node: 11.3772°
argument of perigee: 357.3810°
revolutions per day: 14.52953298
mean anomaly at epoch: 2.7314°
orbit number at epoch: 35248

The dashed part of the orbit path shows where the satellite is in the earth's shadow,  

DLR